Flag for Belgium Weather past 2 weeks in Kortrijk, Belgium

Now
64 °F

Scattered clouds.


Feels Like: 64 °F
Forecast: 46 / 56 °F
Wind: 14 mph from Southwest

Location: Lille Airport

Current Time: Oct 20, 2014 at 3:40:23 PM

Latest Report: Oct 20, 2014 at 3:00 PM


Visibility: N/A

Pressure: 30.04 "Hg

Humidity: 68%

Dew point: 54 °F

Location of KortrijkLocation

Historic Weather in Kortrijk — Graph

°F

Kortrijk temperature yesterday

Maximum temperature yesterday: 72 °F (at 1:00 PM)
Minimum temperature yesterday: 59 °F (at 3:30 AM)
Average temperature yesterday: 63 °F

Past Weeks' High & Low Weather Summary

 TemperatureHumidityPressure
High73 °F (Oct 18, 4:00 PM)100% (Oct 6, 10:30 PM)30.09 "Hg (Oct 6, 10:30 PM)
Low46 °F (Oct 12, 6:00 AM)52% (Oct 9, 4:00 PM)29.45 "Hg (Oct 7, 6:30 AM)
Average58 °F85%29.79 "Hg
* Reported Oct 5 2:00 PM — Oct 20 2:30 PM, Kortrijk, Weather by CustomWeather, © 2014

Note: Actual official high and low records may vary slightly from our data, if they occured in-between our weather recording intervals... More about our weather records

Advertising

Kortrijk weather history for previous 24 hours

 ConditionsComfort  
Time TempWeatherWind HumidityBarometerVisibility
2:30 PM
Oct 20
64 °FScattered clouds.15 mph64%30.07 "HgN/A
2:00 PM64 °FScattered clouds.16 mph73%30.07 "HgN/A
1:30 PM63 °FBroken clouds.12 mph73%30.07 "HgN/A
1:00 PM63 °FBroken clouds.13 mph77%30.07 "HgN/A
12:30 PM61 °FBroken clouds.13 mph77%30.09 "HgN/A
12:00 PM61 °FScattered clouds.12 mph77%30.09 "HgN/A
11:30 AM59 °FScattered clouds.12 mph82%30.07 "HgN/A
11:00 AM59 °FPartly sunny.12 mph82%30.07 "HgN/A
10:30 AM57 °FPartly sunny.10 mph88%30.07 "HgN/A
10:00 AM55 °FBroken clouds.12 mph94%30.07 "HgN/A
9:30 AM55 °FPartly sunny.9 mph94%30.07 "HgN/A
9:00 AM55 °FPassing clouds.9 mph94%30.07 "HgN/A
8:30 AM55 °FPartly cloudy.9 mph94%30.07 "HgN/A
8:00 AM54 °FPassing clouds.6 mph94%30.07 "HgN/A
7:30 AM54 °FPassing clouds.7 mph94%30.07 "HgN/A
7:00 AM55 °FClear.9 mph88%30.07 "Hg10 mi
5:00 AM57 °FClear.12 mph88%30.07 "Hg10 mi
4:30 AM57 °FClear.9 mph88%30.07 "HgN/A
4:00 AM57 °FClear.10 mph94%30.07 "HgN/A
3:30 AM57 °FClear.9 mph88%30.07 "HgN/A
3:00 AM57 °FClear.6 mph88%30.07 "HgN/A
2:30 AM57 °FPassing clouds.7 mph94%30.07 "HgN/A
2:00 AM57 °FPassing clouds.7 mph94%30.07 "HgN/A
1:00 AM59 °FClear.8 mph88%30.07 "Hg10 mi
12:00 AM59 °FClear.8 mph88%30.07 "Hg10 mi
11:30 PM
Oct 19
59 °FClear.9 mph88%30.07 "Hg10 mi
11:00 PM61 °FClear.12 mph83%30.07 "Hg10 mi
10:30 PM59 °FClear.10 mph88%30.07 "Hg10 mi
10:00 PM61 °FClear.12 mph83%30.07 "Hg10 mi
9:30 PM61 °FClear.13 mph83%30.04 "Hg10 mi
9:00 PM61 °FClear.15 mph83%30.04 "Hg10 mi
8:30 PM61 °FClear.14 mph88%30.04 "Hg10 mi
8:00 PM61 °FClear.12 mph83%30.04 "Hg10 mi
7:30 PM63 °FSunny.14 mph77%30.04 "Hg10 mi
7:00 PM63 °FSunny.15 mph77%30.04 "Hg10 mi
6:30 PM64 °FScattered clouds.14 mph73%30.01 "HgN/A
6:00 PM64 °FScattered clouds.15 mph78%30.01 "HgN/A
5:00 PM64 °FScattered clouds.15 mph83%30.01 "HgN/A
4:30 PM64 °FPartly sunny.17 mph88%30.01 "HgN/A
4:00 PM66 °FPartly sunny.14 mph83%30.01 "HgN/A
3:30 PM70 °FPartly sunny.13 mph73%30.01 "HgN/A
3:00 PM70 °FBroken clouds.13 mph73%30.01 "HgN/A
Weather by CustomWeather, © 2014

See weather overviewHow to use our weather pages